sat.trackr.live / text

‹ back to catalog

STARLINK-32873

NORAD 62857 · 2025-022D

PAYLOAD ACTIVE UNKNOWN

§ Identity

Operator
Country
US
Launch date
2025-02-01
Launch site
AFWTR
Launch vehicle
Mass (kg)
RCS (m²)

Purposes: comms

External: N2YO · Heavens-Above · Gunter

§ Orbital elements

Epoch: 2026-09-21T08:38:08.481696Z

Period
93.85 min
Inclination
53.1593°
Eccentricity
0.0001284
Mean motion
15.34430604 rev/d
Perigee alt
461.7 km
Apogee alt
463.5 km
Semi-major
6,840.7 km
B*
5.1776e-4
RAAN
297.5226°
Arg perigee
84.3887°
Mean anomaly
275.7262°
Rev number
9,190

§ Raw data

STARLINK-328731 62857U 25022D   26264.35982039  .00017174  00000+0  51776-3 0  99962 62857  53.1593 297.5226 0001284  84.3887 275.7262 15.34430604 91902

JSON: /api/v1/satellites/62857 · /tle

For live sub-satellite position, see the globe view (requires WebGL).

§ Visibility from observer

Set your observer location to see the next 7 days of passes ≥ 10°. The values pass through the URL so the page stays shareable.

No JS? Fill the form by hand. The geolocation button needs JavaScript.